Time,TemperatureF,DewpointF,PressureIn,WindDirection,WindDirectionDegrees,WindSpeedMPH,WindSpeedGustMPH,Humidity,HourlyPrecipIn,Conditions,Clouds,dailyrainin,SoftwareType,DateUTC
2013-10-03 00:05:00,60.2,58.0,29.86,North,0,0.0,0.0,92,0.00,,,0.00,vanprod,2013-10-03 04:05:00,
2013-10-03 00:15:00,59.9,58.0,29.86,SW,215,0.0,0.0,92,0.00,,,0.00,vanprod,2013-10-03 04:15:00,
2013-10-03 00:25:00,59.9,58.0,29.86,SW,215,0.0,0.0,92,0.00,,,0.00,vanprod,2013-10-03 04:25:00,
2013-10-03 00:35:00,59.6,57.0,29.86,SW,215,0.0,0.0,92,0.00,,,0.00,vanprod,2013-10-03 04:35:00,
2013-10-03 00:45:00,59.5,57.0,29.87,SW,215,0.0,0.0,92,0.00,,,0.00,vanprod,2013-10-03 04:45:00,
2013-10-03 00:55:00,59.3,57.0,29.87,SW,215,0.0,0.0,92,0.00,,,0.00,vanprod,2013-10-03 04:55:00,
2013-10-03 01:05:00,59.0,57.0,29.87,SW,215,0.0,0.0,93,0.00,,,0.00,vanprod,2013-10-03 05:05:00,
2013-10-03 01:15:00,58.9,57.0,29.87,SW,215,0.0,0.0,93,0.00,,,0.00,vanprod,2013-10-03 05:15:00,
2013-10-03 01:25:00,58.7,57.0,29.87,SW,215,0.0,0.0,93,0.00,,,0.00,vanprod,2013-10-03 05:25:00,
2013-10-03 01:35:00,58.6,57.0,29.88,SW,215,0.0,0.0,93,0.00,,,0.00,vanprod,2013-10-03 05:35:00,
2013-10-03 01:45:00,58.3,56.0,29.88,SW,215,0.0,0.0,93,0.00,,,0.00,vanprod,2013-10-03 05:45:00,
2013-10-03 01:55:00,58.1,56.0,29.88,SW,215,0.0,0.0,93,0.00,,,0.00,vanprod,2013-10-03 05:55:00,
2013-10-03 02:05:00,58.0,56.0,29.89,SW,215,0.0,0.0,94,0.00,,,0.00,vanprod,2013-10-03 06:05:00,
2013-10-03 02:15:00,57.6,56.0,29.89,SW,215,0.0,0.0,94,0.00,,,0.00,vanprod,2013-10-03 06:15:00,
2013-10-03 02:25:00,57.5,56.0,29.89,SW,215,0.0,0.0,94,0.00,,,0.00,vanprod,2013-10-03 06:25:00,
2013-10-03 02:35:00,57.3,56.0,29.89,SW,215,0.0,0.0,94,0.00,,,0.00,vanprod,2013-10-03 06:35:00,
2013-10-03 02:45:00,57.2,55.0,29.90,SW,215,0.0,0.0,94,0.00,,,0.00,vanprod,2013-10-03 06:45:00,
2013-10-03 02:55:00,57.0,55.0,29.90,SW,215,0.0,0.0,94,0.00,,,0.00,vanprod,2013-10-03 06:55:00,
2013-10-03 03:05:00,56.9,55.0,29.90,SW,215,0.0,0.0,94,0.00,,,0.00,vanprod,2013-10-03 07:05:00,
2013-10-03 03:15:00,56.7,55.0,29.89,SW,215,0.0,0.0,94,0.00,,,0.00,vanprod,2013-10-03 07:15:00,
2013-10-03 03:25:00,56.6,55.0,29.89,SW,215,0.0,0.0,94,0.00,,,0.00,vanprod,2013-10-03 07:25:00,
2013-10-03 03:35:00,56.3,55.0,29.90,SW,215,0.0,0.0,94,0.00,,,0.00,vanprod,2013-10-03 07:35:00,
2013-10-03 03:45:00,56.2,54.0,29.90,SW,215,0.0,0.0,94,0.00,,,0.00,vanprod,2013-10-03 07:45:00,
2013-10-03 03:55:00,56.0,54.0,29.90,SW,215,0.0,0.0,94,0.00,,,0.00,vanprod,2013-10-03 07:55:00,
2013-10-03 04:05:00,55.7,54.0,29.91,SW,215,0.0,0.0,94,0.00,,,0.00,vanprod,2013-10-03 08:05:00,
2013-10-03 04:15:00,55.6,54.0,29.91,SW,215,0.0,0.0,94,0.00,,,0.00,vanprod,2013-10-03 08:15:00,
2013-10-03 04:25:00,55.4,54.0,29.91,SW,215,0.0,0.0,94,0.00,,,0.00,vanprod,2013-10-03 08:25:00,
2013-10-03 04:35:00,55.3,54.0,29.91,SW,215,0.0,0.0,94,0.00,,,0.00,vanprod,2013-10-03 08:35:00,
2013-10-03 04:45:00,55.3,54.0,29.91,SW,215,0.0,0.0,94,0.00,,,0.00,vanprod,2013-10-03 08:45:00,
2013-10-03 04:55:00,55.0,53.0,29.91,SW,215,0.0,0.0,94,0.00,,,0.00,vanprod,2013-10-03 08:55:00,
2013-10-03 05:05:00,54.8,53.0,29.92,SW,215,0.0,0.0,94,0.00,,,0.00,vanprod,2013-10-03 09:05:00,
2013-10-03 05:15:00,54.7,53.0,29.92,SW,215,0.0,0.0,94,0.00,,,0.00,vanprod,2013-10-03 09:15:00,
2013-10-03 05:25:00,54.5,53.0,29.92,SW,215,0.0,0.0,94,0.00,,,0.00,vanprod,2013-10-03 09:25:00,
2013-10-03 05:35:00,54.5,53.0,29.93,SW,215,0.0,0.0,94,0.00,,,0.00,vanprod,2013-10-03 09:35:00,
2013-10-03 05:45:00,54.4,52.0,29.93,SW,215,0.0,0.0,93,0.00,,,0.00,vanprod,2013-10-03 09:45:00,
2013-10-03 05:55:00,54.2,52.0,29.93,SW,215,0.0,0.0,93,0.00,,,0.00,vanprod,2013-10-03 09:55:00,
2013-10-03 06:05:00,54.1,52.0,29.94,SW,215,0.0,0.0,93,0.00,,,0.00,vanprod,2013-10-03 10:05:00,
2013-10-03 06:15:00,53.9,52.0,29.95,SW,215,0.0,0.0,93,0.00,,,0.00,vanprod,2013-10-03 10:15:00,
2013-10-03 06:25:00,53.8,52.0,29.95,SW,215,0.0,0.0,93,0.00,,,0.00,vanprod,2013-10-03 10:25:00,
2013-10-03 06:35:00,53.6,52.0,29.95,SW,215,0.0,0.0,93,0.00,,,0.00,vanprod,2013-10-03 10:35:00,
2013-10-03 06:45:00,53.5,51.0,29.95,SW,215,0.0,0.0,93,0.00,,,0.00,vanprod,2013-10-03 10:45:00,
2013-10-03 06:55:00,53.3,51.0,29.95,SW,215,0.0,0.0,93,0.00,,,0.00,vanprod,2013-10-03 10:55:00,
2013-10-03 07:05:00,53.2,51.0,29.96,SW,215,0.0,0.0,93,0.00,,,0.00,vanprod,2013-10-03 11:05:00,
2013-10-03 07:15:00,52.9,51.0,29.96,SW,215,0.0,0.0,93,0.00,,,0.00,vanprod,2013-10-03 11:15:00,
2013-10-03 07:25:00,52.8,51.0,29.96,SW,215,0.0,0.0,93,0.00,,,0.00,vanprod,2013-10-03 11:25:00,
2013-10-03 07:35:00,52.8,51.0,29.96,SW,215,0.0,0.0,94,0.00,,,0.00,vanprod,2013-10-03 11:35:00,
2013-10-03 07:45:00,52.8,51.0,29.97,SW,215,0.0,0.0,94,0.00,,,0.00,vanprod,2013-10-03 11:45:00,
2013-10-03 07:55:00,52.9,51.0,29.97,SW,215,0.0,0.0,94,0.00,,,0.00,vanprod,2013-10-03 11:55:00,
2013-10-03 08:05:00,53.1,51.0,29.98,SW,215,0.0,0.0,94,0.00,,,0.00,vanprod,2013-10-03 12:05:00,
2013-10-03 08:15:00,53.3,52.0,29.98,SW,215,0.0,0.0,95,0.00,,,0.00,vanprod,2013-10-03 12:15:00,
2013-10-03 08:25:00,53.6,52.0,29.98,SW,215,0.0,0.0,95,0.00,,,0.00,vanprod,2013-10-03 12:25:00,
2013-10-03 08:35:00,53.9,52.0,29.99,SW,215,0.0,0.0,95,0.00,,,0.00,vanprod,2013-10-03 12:35:00,
2013-10-03 08:45:00,54.5,53.0,29.99,SW,215,0.0,0.0,95,0.00,,,0.00,vanprod,2013-10-03 12:45:00,
2013-10-03 08:55:00,55.1,54.0,29.99,SW,215,0.0,0.0,95,0.00,,,0.00,vanprod,2013-10-03 12:55:00,
2013-10-03 09:05:00,55.6,54.0,29.99,SW,215,0.0,0.0,95,0.00,,,0.00,vanprod,2013-10-03 13:05:00,
2013-10-03 09:15:00,56.3,55.0,30.00,SW,215,0.0,0.0,94,0.00,,,0.00,vanprod,2013-10-03 13:15:00,
2013-10-03 09:25:00,56.9,55.0,30.00,SW,215,0.0,0.0,93,0.00,,,0.00,vanprod,2013-10-03 13:25:00,
2013-10-03 09:35:00,57.6,55.0,30.00,SW,215,0.0,0.0,90,0.00,,,0.00,vanprod,2013-10-03 13:35:00,
2013-10-03 09:45:00,58.3,54.0,30.00,SW,215,0.0,0.0,87,0.00,,,0.00,vanprod,2013-10-03 13:45:00,
2013-10-03 09:55:00,59.3,54.0,30.00,SW,215,0.0,3.0,84,0.00,,,0.00,vanprod,2013-10-03 13:55:00,
2013-10-03 10:05:00,59.9,54.0,30.00,SW,215,0.0,0.0,80,0.00,,,0.00,vanprod,2013-10-03 14:05:00,
2013-10-03 10:15:00,60.7,55.0,30.00,SW,215,0.0,0.0,80,0.00,,,0.00,vanprod,2013-10-03 14:15:00,
2013-10-03 10:25:00,61.6,53.0,30.00,SE,145,0.0,0.0,74,0.00,,,0.00,vanprod,2013-10-03 14:25:00,
2013-10-03 10:35:00,62.7,53.0,30.00,SE,145,0.0,0.0,69,0.00,,,0.00,vanprod,2013-10-03 14:35:00,
2013-10-03 10:45:00,63.5,54.0,30.00,SE,145,0.0,0.0,70,0.00,,,0.00,vanprod,2013-10-03 14:45:00,
2013-10-03 10:55:00,64.0,54.0,30.00,SE,145,0.0,0.0,69,0.00,,,0.00,vanprod,2013-10-03 14:55:00,
2013-10-03 11:05:00,64.5,55.0,29.99,SE,145,0.0,0.0,71,0.00,,,0.00,vanprod,2013-10-03 15:05:00,
2013-10-03 11:15:00,65.0,54.0,29.99,SE,145,0.0,0.0,68,0.00,,,0.00,vanprod,2013-10-03 15:15:00,
2013-10-03 11:25:00,65.5,55.0,29.99,SSE,161,0.0,0.0,68,0.00,,,0.00,vanprod,2013-10-03 15:25:00,
2013-10-03 11:35:00,65.8,54.0,29.98,SSE,161,0.0,0.0,65,0.00,,,0.00,vanprod,2013-10-03 15:35:00,
2013-10-03 11:45:00,66.4,56.0,29.98,SSE,161,0.0,0.0,69,0.00,,,0.00,vanprod,2013-10-03 15:45:00,
2013-10-03 11:55:00,66.8,54.0,29.98,SSE,161,0.0,0.0,63,0.00,,,0.00,vanprod,2013-10-03 15:55:00,
2013-10-03 12:05:00,67.3,55.0,29.98,SE,141,0.0,0.0,65,0.00,,,0.00,vanprod,2013-10-03 16:05:00,
2013-10-03 12:15:00,67.4,54.0,29.98,SE,141,0.0,0.0,61,0.00,,,0.00,vanprod,2013-10-03 16:15:00,
2013-10-03 12:25:00,67.9,53.0,29.98,SE,141,0.0,0.0,58,0.00,,,0.00,vanprod,2013-10-03 16:25:00,
2013-10-03 12:35:00,68.3,53.0,29.97,South,190,0.0,0.0,58,0.00,,,0.00,vanprod,2013-10-03 16:35:00,
2013-10-03 12:45:00,68.8,52.0,29.96,South,190,0.0,0.0,54,0.00,,,0.00,vanprod,2013-10-03 16:45:00,
2013-10-03 12:55:00,68.9,50.0,29.96,South,190,0.0,0.0,51,0.00,,,0.00,vanprod,2013-10-03 16:55:00,
2013-10-03 13:05:00,69.1,51.0,29.96,SSE,155,0.0,0.0,53,0.00,,,0.00,vanprod,2013-10-03 17:05:00,
2013-10-03 13:15:00,69.1,51.0,29.96,SSE,155,0.0,0.0,52,0.00,,,0.00,vanprod,2013-10-03 17:15:00,
2013-10-03 13:25:00,69.3,50.0,29.96,South,178,0.0,1.0,51,0.00,,,0.00,vanprod,2013-10-03 17:25:00,
2013-10-03 13:35:00,69.4,51.0,29.95,South,178,0.0,0.0,51,0.00,,,0.00,vanprod,2013-10-03 17:35:00,
2013-10-03 13:45:00,69.8,50.0,29.95,South,178,0.0,0.0,50,0.00,,,0.00,vanprod,2013-10-03 17:45:00,
2013-10-03 13:55:00,70.3,47.0,29.95,SSE,161,0.0,1.0,43,0.00,,,0.00,vanprod,2013-10-03 17:55:00,
2013-10-03 14:05:00,70.8,51.0,29.94,SSE,161,0.0,0.0,49,0.00,,,0.00,vanprod,2013-10-03 18:05:00,
2013-10-03 14:15:00,70.8,49.0,29.93,SSE,161,0.0,0.0,46,0.00,,,0.00,vanprod,2013-10-03 18:15:00,
2013-10-03 14:25:00,70.8,51.0,29.93,ESE,119,0.0,0.0,49,0.00,,,0.00,vanprod,2013-10-03 18:25:00,
2013-10-03 14:35:00,70.9,52.0,29.93,ESE,119,0.0,0.0,51,0.00,,,0.00,vanprod,2013-10-03 18:35:00,
2013-10-03 14:45:00,70.9,52.0,29.93,ESE,119,0.0,0.0,52,0.00,,,0.00,vanprod,2013-10-03 18:45:00,
2013-10-03 14:55:00,70.8,51.0,29.93,ESE,119,0.0,0.0,50,0.00,,,0.00,vanprod,2013-10-03 18:55:00,
2013-10-03 15:05:00,70.8,53.0,29.93,ESE,119,0.0,0.0,53,0.00,,,0.00,vanprod,2013-10-03 19:05:00,
2013-10-03 15:15:00,70.8,51.0,29.93,ESE,119,0.0,0.0,50,0.00,,,0.00,vanprod,2013-10-03 19:15:00,
2013-10-03 15:25:00,71.1,50.0,29.93,South,182,0.0,1.0,47,0.00,,,0.00,vanprod,2013-10-03 19:25:00,
2013-10-03 15:35:00,71.3,51.0,29.93,South,182,0.0,0.0,49,0.00,,,0.00,vanprod,2013-10-03 19:35:00,
2013-10-03 15:45:00,71.6,51.0,29.93,South,182,1.0,0.0,48,0.00,,,0.00,vanprod,2013-10-03 19:45:00,
2013-10-03 15:55:00,71.5,52.0,29.93,ESE,107,0.0,0.0,50,0.00,,,0.00,vanprod,2013-10-03 19:55:00,
2013-10-03 16:05:00,71.1,54.0,29.92,ESE,107,0.0,0.0,54,0.00,,,0.00,vanprod,2013-10-03 20:05:00,
2013-10-03 16:15:00,70.6,55.0,29.93,ESE,107,0.0,0.0,58,0.00,,,0.00,vanprod,2013-10-03 20:15:00,
2013-10-03 16:25:00,69.9,55.0,29.93,ESE,107,0.0,0.0,59,0.00,,,0.00,vanprod,2013-10-03 20:25:00,
2013-10-03 16:35:00,69.4,55.0,29.93,ESE,107,0.0,0.0,60,0.00,,,0.00,vanprod,2013-10-03 20:35:00,
2013-10-03 16:45:00,68.8,55.0,29.93,ESE,107,0.0,0.0,62,0.00,,,0.00,vanprod,2013-10-03 20:45:00,
2013-10-03 16:55:00,68.3,56.0,29.93,South,173,0.0,0.0,64,0.00,,,0.00,vanprod,2013-10-03 20:55:00,
2013-10-03 17:05:00,67.6,56.0,29.93,South,173,0.0,0.0,67,0.00,,,0.00,vanprod,2013-10-03 21:05:00,
2013-10-03 17:15:00,66.9,57.0,29.93,South,173,0.0,0.0,69,0.00,,,0.00,vanprod,2013-10-03 21:15:00,
2013-10-03 17:25:00,66.4,57.0,29.93,South,173,0.0,0.0,72,0.00,,,0.00,vanprod,2013-10-03 21:25:00,
2013-10-03 17:35:00,65.8,57.0,29.93,South,173,0.0,0.0,74,0.00,,,0.00,vanprod,2013-10-03 21:35:00,
2013-10-03 17:45:00,65.5,58.0,29.93,South,173,0.0,0.0,76,0.00,,,0.00,vanprod,2013-10-03 21:45:00,
2013-10-03 17:55:00,65.0,58.0,29.93,South,173,0.0,0.0,77,0.00,,,0.00,vanprod,2013-10-03 21:55:00,
2013-10-03 18:05:00,64.5,58.0,29.93,South,173,0.0,0.0,79,0.00,,,0.00,vanprod,2013-10-03 22:05:00,
2013-10-03 18:15:00,64.0,57.0,29.93,South,173,0.0,0.0,78,0.00,,,0.00,vanprod,2013-10-03 22:15:00,
2013-10-03 18:25:00,63.4,57.0,29.93,South,173,0.0,0.0,80,0.00,,,0.00,vanprod,2013-10-03 22:25:00,
2013-10-03 18:35:00,62.6,57.0,29.93,South,173,0.0,0.0,82,0.00,,,0.00,vanprod,2013-10-03 22:35:00,
2013-10-03 18:45:00,62.0,57.0,29.94,South,173,0.0,0.0,83,0.00,,,0.00,vanprod,2013-10-03 22:45:00,
2013-10-03 18:55:00,61.5,56.0,29.94,South,173,0.0,0.0,83,0.00,,,0.00,vanprod,2013-10-03 22:55:00,
2013-10-03 19:05:00,60.9,56.0,29.94,South,173,0.0,0.0,84,0.00,,,0.00,vanprod,2013-10-03 23:05:00,
2013-10-03 19:15:00,60.4,56.0,29.95,South,173,0.0,0.0,85,0.00,,,0.00,vanprod,2013-10-03 23:15:00,
2013-10-03 19:25:00,59.9,55.0,29.95,South,173,0.0,0.0,84,0.00,,,0.00,vanprod,2013-10-03 23:25:00,
2013-10-03 19:35:00,59.3,54.0,29.95,South,173,0.0,0.0,84,0.00,,,0.00,vanprod,2013-10-03 23:35:00,
2013-10-03 19:45:00,59.2,54.0,29.95,South,173,0.0,0.0,84,0.00,,,0.00,vanprod,2013-10-03 23:45:00,
2013-10-03 19:55:00,58.7,54.0,29.95,South,173,0.0,0.0,84,0.00,,,0.00,vanprod,2013-10-03 23:55:00,
2013-10-03 20:05:00,58.4,54.0,29.95,South,173,0.0,0.0,85,0.00,,,0.00,vanprod,2013-10-04 00:05:00,
2013-10-03 20:15:00,58.1,54.0,29.96,South,173,0.0,0.0,86,0.00,,,0.00,vanprod,2013-10-04 00:15:00,
2013-10-03 20:25:00,57.8,54.0,29.96,South,173,0.0,0.0,86,0.00,,,0.00,vanprod,2013-10-04 00:25:00,
2013-10-03 20:35:00,57.5,54.0,29.96,South,173,0.0,0.0,88,0.00,,,0.00,vanprod,2013-10-04 00:35:00,
2013-10-03 20:45:00,57.3,54.0,29.96,South,173,0.0,0.0,88,0.00,,,0.00,vanprod,2013-10-04 00:45:00,
2013-10-03 20:55:00,57.2,54.0,29.96,South,173,0.0,0.0,88,0.00,,,0.00,vanprod,2013-10-04 00:55:00,
2013-10-03 21:05:00,57.0,54.0,29.96,South,173,0.0,0.0,89,0.00,,,0.00,vanprod,2013-10-04 01:05:00,
2013-10-03 21:15:00,56.9,54.0,29.96,South,173,0.0,0.0,90,0.00,,,0.00,vanprod,2013-10-04 01:15:00,
2013-10-03 21:25:00,56.7,54.0,29.96,South,173,0.0,0.0,91,0.00,,,0.00,vanprod,2013-10-04 01:25:00,
2013-10-03 21:35:00,56.6,54.0,29.96,South,173,0.0,0.0,91,0.00,,,0.00,vanprod,2013-10-04 01:35:00,
2013-10-03 21:45:00,56.5,54.0,29.97,South,173,0.0,0.0,91,0.00,,,0.00,vanprod,2013-10-04 01:45:00,
2013-10-03 21:55:00,56.2,54.0,29.97,South,173,0.0,0.0,91,0.00,,,0.00,vanprod,2013-10-04 01:55:00,
2013-10-03 22:05:00,56.0,54.0,29.98,South,173,0.0,0.0,92,0.00,,,0.00,vanprod,2013-10-04 02:05:00,
2013-10-03 22:15:00,55.9,54.0,29.98,South,173,0.0,0.0,92,0.00,,,0.00,vanprod,2013-10-04 02:15:00,
2013-10-03 22:25:00,55.7,53.0,29.98,South,173,0.0,0.0,92,0.00,,,0.00,vanprod,2013-10-04 02:25:00,
2013-10-03 22:35:00,55.7,53.0,29.99,South,173,0.0,0.0,92,0.00,,,0.00,vanprod,2013-10-04 02:35:00,
2013-10-03 22:45:00,55.6,54.0,29.98,South,173,0.0,0.0,93,0.00,,,0.00,vanprod,2013-10-04 02:45:00,
2013-10-03 22:55:00,55.7,54.0,29.98,South,173,0.0,0.0,93,0.00,,,0.00,vanprod,2013-10-04 02:55:00,
2013-10-03 23:05:00,55.6,54.0,29.98,South,173,0.0,0.0,93,0.00,,,0.00,vanprod,2013-10-04 03:05:00,
2013-10-03 23:15:00,55.6,54.0,29.98,South,173,0.0,0.0,93,0.00,,,0.00,vanprod,2013-10-04 03:15:00,
2013-10-03 23:25:00,55.6,54.0,29.98,South,173,0.0,0.0,94,0.00,,,0.00,vanprod,2013-10-04 03:25:00,
2013-10-03 23:35:00,55.6,54.0,29.97,South,173,0.0,0.0,94,0.00,,,0.00,vanprod,2013-10-04 03:35:00,
2013-10-03 23:45:00,55.6,54.0,29.97,South,173,0.0,0.0,94,0.00,,,0.00,vanprod,2013-10-04 03:45:00,
2013-10-03 23:55:00,55.6,54.0,29.97,South,173,0.0,0.0,94,0.00,,,0.00,vanprod,2013-10-04 03:55:00,